Location: Courcelles
(49.2596°N, 1.7419°E)
Time: 21:59:38
(UTC+00:00)

Cosmos 1072 Rocket - Pass Details

Date: 17 November 2025
Orbit: 947 x 1008 km, 82.9° (Epoch: 05 December)

Event Time Altitude Azimuth Distance (km) Brightness Sun altitude
Rises 17:49:05 0° 176° (S) 3,637 7.6 -16.2°
Reaches altitude 10° 17:51:36 10° 174° (S) 2,687 6.9 -16.6°
Maximum altitude 17:57:39 65° 94° (E) 1,047 4.4 -17.5°
Drops below altitude 10° 18:03:42 10° 14° (NNE) 2,683 6.6 -18.5°
Sets 18:06:12 0° 12° (NNE) 3,631 7.3 -18.9°
